Simultaneous Nadir Overpasses (SNOs) Predictions

Prediction of SNOs between AQUA and METOP-C Satellite Orbit:

Table of predicted SNOs for the next 14.0 days since TLE Epoch: 7/20/2024
Index Date (AQUA) Time (AQUA) Lat,Lon (AQUA) SZA (AQUA ) Date (METOP-C) Time (METOP-C) Lat,Lon (METOP-C) SZA (METOP-C ) Distance(km) Time Diff (sec)
1 07/21/2024 19:52:19 -75.50, 60.91 124.82 07/21/2024 19:51:50 -75.50, 60.83 124.81 2.27 29
2 07/21/2024 20:41:43 75.59,-131.69 55.28 07/21/2024 20:42:28 75.56,-131.64 55.26 3.16 45
3 07/24/2024 11:13:06 75.53, 10.68 55.76 07/24/2024 11:12:49 75.50, 10.60 55.74 3.34 17
4 07/24/2024 12:02:28 -75.56, 178.23 124.20 07/24/2024 12:03:30 -75.57, 178.13 124.19 2.97 62
5 07/27/2024 01:44:25 75.30, 153.52 56.10 07/27/2024 01:43:15 75.24, 152.23 56.07 36.96 70
6 07/27/2024 02:33:51 -75.54, -39.49 123.65 07/27/2024 02:33:51 -75.55, -39.52 123.64 1.21 0
7 07/27/2024 03:23:15 75.64, 127.87 56.47 07/27/2024 03:24:28 75.65, 128.15 56.48 7.73 73
8 07/29/2024 17:05:12 -75.50, 102.82 123.07 07/29/2024 17:04:12 -75.51, 102.78 123.06 1.25 60
9 07/29/2024 17:54:35 75.56, -89.68 57.00 07/29/2024 17:54:50 75.57, -89.69 57.01 1.32 15
10 08/01/2024 08:25:54 75.52, 52.66 57.60 08/01/2024 08:25:11 75.52, 52.57 57.61 2.46 43
11 08/01/2024 09:15:17 -75.60,-139.92 122.31 08/01/2024 09:15:52 -75.58,-139.91 122.33 1.63 35



Historial Predications of SNOs between AQUA and METOP-C
